Slayton, MN

3:13 AM CST on February 24, 2017 (GMT -0600)
Slayton

Weather History for KDVP - July, 2013

Change the Weather History Date:

Sunday, July 21, 2013

  Actual Average (KOTG) Record (KOTG)
Temperature  
Mean Temperature 73 °F -  
Max Temperature 85 °F 78 °F 97 °F (1983)
Min Temperature 61 °F 60 °F 46 °F (2000)
Cooling Degree Days 8    
Growing Degree Days 23 (Base 50)    
Moisture  
Dew Point 62 °F    
Average Humidity 71    
Maximum Humidity 97    
Minimum Humidity 36    
Precipitation  
Precipitation 0.00 in - - ()
Sea Level Pressure  
Sea Level Pressure 29.89 in    
Wind  
Wind Speed 3 mph (SSE)    
Max Wind Speed 10 mph    
Max Gust Speed -    
Visibility 10 miles    
Events      
Averages and records for this station are not official NWS values.
T = Trace of Precipitation, MM = Missing Value Source: NWS Daily Summary

Daily Weather History Graph

Daily Weather History Graph

Search for Another Location

Airport or City:

Trip Planner

Search our weather history database for the weather conditions in past years. The results will help you decide how hot, cold, wet, or windy it might be!

Date:

Astronomy

Jul. 21, 2013 Rise Set
Actual Time 6:00 AM CDT 8:58 PM CDT
Civil Twilight 5:25 AM CDT 9:32 PM CDT
Nautical Twilight 4:42 AM CDT 10:16 PM CDT
Astronomical Twilight 3:50 AM CDT 11:07 PM CDT
Moon 7:55 PM CDT (7/21) 4:47 AM CDT (7/21)
Length of Visible Light 16h 06m
Length of Day
14h 58m
Waxing Gibbous, 98% of the Moon is Illuminated
Jul 21
Waxing Gibbous
Jul 22
Full
Jul 29
Last Quarter
Aug 6
New
Aug 14
First Quarter

Hourly Weather History & Observations

Time (CDT) Temp. Heat Index Dew Point Humidity Pressure Visibility Wind Dir Wind Speed Gust Speed Precip Events Conditions
12:13 AM 67.5 °F - 62.6 °F 84% 29.97 in 10.0 mi East 4.6 mph - N/A   Clear
12:34 AM 67.5 °F - 62.6 °F 84% 29.97 in 10.0 mi East 3.5 mph - N/A   Scattered Clouds
12:53 AM 67.1 °F - 62.6 °F 85% 29.97 in 10.0 mi Calm Calm - N/A   Scattered Clouds
1:13 AM 66.6 °F - 62.2 °F 86% 29.96 in 10.0 mi Calm Calm - N/A   Scattered Clouds
1:34 AM 66.9 °F - 62.1 °F 84% 29.95 in 10.0 mi Calm Calm - N/A   Clear
1:53 AM 66.0 °F - 62.2 °F 88% 29.94 in 10.0 mi Calm Calm - N/A   Scattered Clouds
2:13 AM 66.4 °F - 62.6 °F 88% 29.94 in 10.0 mi Calm Calm - N/A   Mostly Cloudy
2:33 AM 66.7 °F - 63.1 °F 88% 29.95 in 10.0 mi Calm Calm - N/A   Overcast
2:54 AM 66.4 °F - 63.1 °F 89% 29.95 in 10.0 mi North 3.5 mph - N/A   Mostly Cloudy
3:13 AM 65.8 °F - 63.5 °F 92% 29.94 in 10.0 mi Calm Calm - N/A   Overcast
3:33 AM 65.8 °F - 63.5 °F 92% 29.93 in 10.0 mi ENE 3.5 mph - N/A   Overcast
3:53 AM 66.2 °F - 63.1 °F 90% 29.92 in 10.0 mi Calm Calm - N/A   Mostly Cloudy
4:13 AM 66.0 °F - 63.5 °F 92% 29.91 in 10.0 mi SE 4.6 mph - N/A   Mostly Cloudy
4:33 AM 65.3 °F - 63.1 °F 93% 29.91 in 10.0 mi Calm Calm - N/A   Scattered Clouds
4:53 AM 65.5 °F - 63.1 °F 92% 29.91 in 10.0 mi Calm Calm - N/A   Scattered Clouds
5:13 AM 63.9 °F - 62.1 °F 94% 29.91 in 10.0 mi Calm Calm - N/A   Clear
5:33 AM 63.0 °F - 61.9 °F 96% 29.91 in 10.0 mi SSE 4.6 mph - N/A   Clear
5:53 AM 62.4 °F - 61.3 °F 96% 29.91 in 7.0 mi Calm Calm - N/A   Clear
6:13 AM 61.7 °F - 61.0 °F 97% 29.91 in 7.0 mi Calm Calm - N/A   Scattered Clouds
6:33 AM 63.3 °F - 62.6 °F 97% 29.91 in 7.0 mi Calm Calm - N/A   Scattered Clouds
6:52 AM 64.6 °F - 63.3 °F 96% 29.92 in 7.0 mi Calm Calm - N/A   Mostly Cloudy
7:13 AM 65.7 °F - 64.4 °F 96% 29.92 in 7.0 mi Calm Calm - N/A   Overcast
7:33 AM 66.2 °F - 64.4 °F 94% 29.91 in 10.0 mi Calm Calm - N/A   Overcast
7:54 AM 66.6 °F - 64.6 °F 93% 29.91 in 7.0 mi Calm Calm - N/A   Overcast
8:13 AM 66.7 °F - 64.9 °F 94% 29.91 in 10.0 mi Calm Calm - N/A   Overcast
8:33 AM 67.1 °F - 65.1 °F 93% 29.91 in 10.0 mi Calm Calm - N/A   Overcast
8:53 AM 67.6 °F - 65.3 °F 92% 29.92 in 10.0 mi Calm Calm - N/A   Scattered Clouds
9:14 AM 69.6 °F - 65.8 °F 88% 29.93 in 10.0 mi Calm Calm - N/A   Clear
9:34 AM 72.9 °F - 65.5 °F 78% 29.93 in 10.0 mi Calm Calm - N/A   Clear
9:52 AM 74.3 °F - 65.7 °F 74% 29.93 in 10.0 mi Calm Calm - N/A   Clear
10:13 AM 76.3 °F - 64.0 °F 66% 29.92 in 10.0 mi Calm Calm - N/A   Scattered Clouds
10:32 AM 78.1 °F - 64.8 °F 63% 29.92 in 10.0 mi SSE 3.5 mph - N/A   Scattered Clouds
10:53 AM 77.4 °F - 65.3 °F 66% 29.91 in 10.0 mi SE 3.5 mph - N/A   Scattered Clouds
11:13 AM 78.1 °F - 64.9 °F 64% 29.91 in 10.0 mi SE 4.6 mph - N/A   Scattered Clouds
11:33 AM 79.0 °F - 63.9 °F 60% 29.91 in 10.0 mi Calm Calm - N/A   Clear
11:53 AM 80.4 °F 81.8 °F 63.3 °F 56% 29.90 in 10.0 mi SE 4.6 mph - N/A   Scattered Clouds
12:13 PM 81.1 °F 82.5 °F 63.3 °F 55% 29.90 in 10.0 mi ESE 4.6 mph - N/A   Mostly Cloudy
12:33 PM 81.5 °F 82.9 °F 63.7 °F 55% 29.89 in 10.0 mi SSE 6.9 mph - N/A   Mostly Cloudy
12:53 PM 82.4 °F 82.6 °F 59.9 °F 46% 29.89 in 10.0 mi SSE 10.4 mph - N/A   Scattered Clouds
1:13 PM 82.6 °F 82.9 °F 60.3 °F 47% 29.88 in 10.0 mi SSE 6.9 mph - N/A   Scattered Clouds
1:33 PM 83.3 °F 83.2 °F 59.2 °F 44% 29.88 in 10.0 mi SSE 5.8 mph - N/A   Clear
1:53 PM 84.0 °F 83.8 °F 59.0 °F 43% 29.87 in 10.0 mi SSW 8.1 mph - N/A   Clear
2:14 PM 83.3 °F 83.1 °F 58.5 °F 43% 29.86 in 10.0 mi South 6.9 mph - N/A   Clear
2:33 PM 84.4 °F 83.5 °F 56.8 °F 39% 29.86 in 10.0 mi SSW 5.8 mph - N/A   Scattered Clouds
2:53 PM 82.6 °F 82.6 °F 59.2 °F 45% 29.86 in 10.0 mi SE 6.9 mph - N/A   Mostly Cloudy
3:13 PM 85.3 °F 84.1 °F 56.3 °F 37% 29.86 in 10.0 mi SSW 5.8 mph - N/A   Scattered Clouds
3:33 PM 85.1 °F 84.6 °F 59.0 °F 41% 29.85 in 10.0 mi SE 3.5 mph - N/A   Scattered Clouds
3:54 PM 84.4 °F 84.0 °F 59.2 °F 42% 29.85 in 10.0 mi SE 4.6 mph - N/A   Mostly Cloudy
4:14 PM 84.7 °F 84.0 °F 57.7 °F 40% 29.85 in 10.0 mi ESE 3.5 mph - N/A   Scattered Clouds
4:33 PM 84.9 °F 83.9 °F 57.0 °F 38% 29.85 in 10.0 mi SE 4.6 mph - N/A   Scattered Clouds
4:52 PM 84.4 °F 83.4 °F 56.3 °F 38% 29.85 in 10.0 mi SE 5.8 mph - N/A   Clear
5:13 PM 84.2 °F 83.2 °F 55.9 °F 38% 29.84 in 10.0 mi SE 9.2 mph - N/A   Clear
5:33 PM 84.4 °F 83.2 °F 55.2 °F 37% 29.84 in 10.0 mi SSE 6.9 mph - N/A   Clear
5:53 PM 84.6 °F 83.2 °F 54.7 °F 36% 29.83 in 10.0 mi South 5.8 mph - N/A   Clear
6:13 PM 83.8 °F 82.7 °F 55.2 °F 37% 29.83 in 10.0 mi SSE 5.8 mph - N/A   Clear
6:33 PM 83.7 °F 83.0 °F 57.2 °F 40% 29.83 in 10.0 mi SSE 6.9 mph - N/A   Clear
6:53 PM 83.3 °F 82.8 °F 57.4 °F 41% 29.82 in 10.0 mi SSE 5.8 mph - N/A   Clear
7:14 PM 82.4 °F 82.5 °F 59.4 °F 45% 29.81 in 10.0 mi SSE 6.9 mph - N/A   Clear
7:34 PM 81.1 °F 82.0 °F 61.3 °F 51% 29.81 in 10.0 mi SE 5.8 mph - N/A   Clear
7:53 PM 79.5 °F - 61.9 °F 55% 29.83 in 10.0 mi SSE 4.6 mph - N/A   Clear
8:13 PM 78.4 °F - 63.5 °F 60% 29.84 in 10.0 mi South 3.5 mph - N/A   Clear
8:33 PM 76.5 °F - 66.2 °F 70% 29.84 in 10.0 mi SSE 3.5 mph - N/A   Scattered Clouds
8:54 PM 75.2 °F - 66.2 °F 73% 29.84 in 10.0 mi SSE 4.6 mph - N/A   Clear
9:14 PM 71.6 °F - 66.2 °F 83% 29.83 in 10.0 mi SSE 6.9 mph - N/A   Clear
9:33 PM 70.3 °F - 65.7 °F 85% 29.84 in 10.0 mi SE 5.8 mph - N/A   Clear
9:52 PM 70.0 °F - 65.7 °F 86% 29.84 in 10.0 mi SSE 4.6 mph - N/A   Clear
10:13 PM 69.6 °F - 65.8 °F 88% 29.85 in 10.0 mi South 5.8 mph - N/A   Clear
10:32 PM 70.2 °F - 66.2 °F 87% 29.85 in 10.0 mi SSE 6.9 mph - N/A   Clear
10:53 PM 69.3 °F - 65.7 °F 88% 29.85 in 10.0 mi South 4.6 mph - N/A   Clear
11:13 PM 68.0 °F - 65.7 °F 92% 29.83 in 10.0 mi SSE 5.8 mph - N/A   Clear
11:33 PM 69.1 °F - 66.2 °F 91% 29.83 in 10.0 mi South 5.8 mph - N/A   Clear
11:53 PM 69.4 °F - 66.2 °F 89% 29.83 in 10.0 mi South 5.8 mph - N/A   Clear